Temperature
18 18 18 18 18 17 17 17 17 17 17 17 17 17 17 17 17 17 17 17 17 17 16 16 16 16 16 16 16 16 16 16 16 16 16 16 16 16 15 15 15 15 15
17 18 18 17 17 17 17 17 17 17 17 17 17 17 17 17 17 16 16 16 16 16 16 16 16 16 16 16 16 16 16 16 16 16 16 16 16 15 15 15 15 15 15
17 17 17 17 17 17 17 17 17 17 17 17 17 17 17 17 16 16 16 16 16 16 16 16 16 16 16 16 16 16 16 16 15 15 15 15 15 15 15 15 15 15 15
17 17 17 17 17 17 17 17 17 17 17 17 17 17 17 17 16 16 16 16 16 16 16 16 16 16 16 16 16 16 16 15 15 14 14 15 15 15 15 15 15 15 15
17 17 17 17 17 17 17 17 17 17 17 16 17 17 17 17 16 16 16 16 16 16 16 16 16 16 16 16 16 16 15 15 15 14 14 14 15 15 15 15 15 15 15
16 16 17 17 17 17 17 17 17 17 16 16 16 16 16 16 16 16 16 16 16 16 16 16 15 15 16 16 16 16 15 15 14 14 14 14 15 15 15 15 15 15 15
16 16 16 16 17 16 16 16 17 17 16 16 16 16 16 16 16 16 16 16 16 16 16 16 15 15 15 16 16 15 15 15 14 14 14 14 14 15 15 15 15 15 14
16 16 16 16 16 16 16 16 16 16 16 16 16 16 16 16 16 16 16 16 16 16 16 16 15 15 15 15 15 15 15 15 14 14 14 14 14 14 14 14 14 14 14
16 16 16 16 16 16 16 16 16 16 16 16 16 16 16 16 16 16 16 16 16 16 15 15 15 15 15 15 15 15 15 15 14 14 14 14 14 14 14 14 14 14 14
15 15 15 15 15 15 15 16 16 16 16 16 16 16 16 16 16 16 16 16 16 15 15 15 15 15 15 15 15 15 15 15 14 14 14 14 14 14 14 14 14 14 14
15 15 15 15 15 15 15 15 15 15 15 15 15 15 15 15 15 15 15 15 15 15 15 15 15 15 15 15 15 15 15 14 14 14 14 14 14 14 14 14 14 14 14
14 14 15 15 15 15 15 15 15 15 15 15 15 15 15 15 15 15 15 15 15 15 15 15 15 15 15 15 15 15 15 14 14 14 14 14 14 14 14 14 14 14 14
13 14 14 14 15 15 15 15 15 15 15 15 15 15 15 15 15 15 15 15 15 15 15 15 15 15 14 14 14 14 14 14 14 14 14 14 14 14 14 14 14 14 13
13 13 14 14 14 14 14 15 15 15 15 15 15 15 15 15 14 14 15 15 15 15 15 14 14 14 14 14 14 14 14 14 14 13 13 13 14 14 14 14 14 13 13
13 13 13 13 14 14 14 14 14 14 14 15 15 15 15 14 14 14 14 14 14 14 14 14 14 14 14 14 14 14 14 14 13 13 13 13 13 13 13 13 13 13 13
12 12 12 13 13 13 13 14 14 14 14 14 14 14 14 14 14 14 14 14 14 14 14 14 14 14 13 13 13 13 13 13 13 13 13 13 13 13 13 13 13 13 12
12 12 12 12 13 13 13 13 13 14 14 14 14 14 14 14 14 14 14 14 14 14 14 14 14 13 13 13 13 13 13 13 13 13 13 13 13 13 13 13 12 12 12
11 11 12 12 12 12 13 13 13 13 13 13 14 14 13 13 13 14 14 14 14 14 13 13 13 13 13 13 13 13 13 13 13 13 13 13 13 13 12 12 12 12 12
11 11 11 11 12 12 12 12 13 13 13 13 13 13 13 13 13 13 13 13 13 13 13 13 13 13 13 13 13 13 12 12 13 12 12 12 12 12 12 12 12 12 12
10 10 10 11 11 11 11 12 12 12 12 12 13 13 13 13 13 13 13 13 13 13 13 13 13 13 13 13 12 12 12 12 12 12 12 12 12 12 11 11 11 11 11
10 10 10 10 11 11 11 11 11 11 12 12 12 12 12 12 12 12 12 12 12 12 12 12 12 12 12 12 12 12 12 12 12 12 12 11 11 11 11 11 11 11 11
9 9 9 10 10 10 10 10 11 11 11 11 11 12 12 12 12 12 12 12 12 12 12 12 12 12 12 12 12 11 11 11 11 11 11 11 11 11 10 10 10 10 10
9 9 9 9 9 10 10 10 10 10 11 11 11 11 11 11 11 12 12 12 12 12 12 12 12 12 12 12 11 11 10 10 10 11 11 11 10 10 10 10 10 10 10
8 8 9 9 9 9 9 9 10 10 10 10 10 10 11 11 11 11 11 11 11 11 11 11 11 11 11 11 11 11 10 10 10 9 10 10 10 10 9 9 9 9 9
8 8 8 8 9 9 9 9 9 9 9 10 10 10 10 10 10 10 10 11 11 11 11 11 11 11 10 10 10 10 10 10 9 9 9 9 9 9 9 9 9 9 9
8 8 8 8 8 8 8 8 9 9 9 9 9 9 9 9 10 10 10 10 10 10 10 10 10 10 10 10 9 9 9 9 9 8 8 8 8 9 9 8 8 8 8
Wind_Speed
5 9 13 11 11 11 11 11 12 13 13 13 12 12 12 11 11 11 12 11 11 11 11 11 11 11 11 12 13 13 13 14 14 14 14 14 13 13 12 13 14 13 14
4 10 14 12 11 11 11 11 12 12 13 12 12 12 12 11 11 11 11 11 11 11 11 11 11 11 11 12 12 12 12 12 12 12 12 12 12 12 13 14 13 11 12
5 9 11 11 11 11 11 11 12 12 12 12 12 12 12 11 11 11 11 11 10 10 10 10 11 11 11 11 11 11 10 9 8 8 8 9 11 11 12 12 11 11 11
5 8 9 11 11 11 11 11 11 12 12 12 12 12 12 12 11 11 11 10 10 10 10 10 10 11 11 10 9 9 7 5 3 2 4 9 10 10 10 10 10 10 10
5 7 9 11 10 10 11 11 11 11 12 12 12 12 12 12 11 11 11 10 10 10 10 11 11 10 10 9 8 7 5 2 2 2 5 11 11 9 9 8 8 8 8
4 6 9 11 9 10 10 11 11 11 11 11 12 12 12 12 12 11 11 11 11 10 11 11 11 10 9 8 7 5 3 3 4 1 7 11 10 8 8 7 7 6 6
4 5 7 10 10 9 10 11 11 11 11 11 11 12 12 12 12 12 11 11 11 11 11 11 10 9 9 7 6 5 4 4 5 1 6 10 9 8 6 5 5 5 4
4 3 4 8 10 10 10 10 11 12 11 11 11 12 12 12 12 12 12 12 12 12 12 11 10 9 8 7 6 5 4 5 4 2 7 9 8 6 5 4 3 3 3
3 2 2 4 8 10 11 11 11 11 12 12 12 12 12 12 12 12 13 12 12 12 12 11 10 9 8 7 6 6 5 6 6 2 5 7 7 5 3 2 1 1 1
3 1 1 2 4 6 9 11 11 11 12 12 12 12 12 13 13 13 13 13 12 12 12 11 10 10 9 8 7 7 7 7 7 3 5 7 7 5 3 2 1 1 0
3 1 0 1 2 4 6 9 11 11 12 12 11 12 12 11 12 12 13 14 13 12 12 12 11 10 9 8 8 8 7 8 8 4 6 9 7 4 3 2 2 2 2
3 2 2 1 1 2 4 6 7 9 10 11 10 11 11 11 11 12 13 15 14 14 13 12 12 11 9 8 8 9 8 9 7 3 6 10 7 5 4 4 4 4 4
3 3 2 2 2 2 1 3 4 5 7 10 10 11 10 10 9 9 9 11 12 12 11 11 11 10 9 8 7 8 9 9 5 4 8 10 8 6 5 5 5 5 5
3 3 3 3 2 2 2 2 3 3 4 5 8 10 8 4 4 5 6 9 9 10 9 8 8 9 9 8 8 8 8 6 4 4 8 10 8 7 6 6 6 6 6
4 4 3 3 3 3 2 3 3 3 4 5 6 9 8 4 5 4 5 7 8 9 8 6 6 6 6 6 7 6 5 6 5 4 7 10 9 7 7 7 7 7 8
4 4 3 3 3 3 3 3 3 3 3 4 5 7 8 6 5 5 5 5 5 7 7 7 6 5 4 3 4 5 5 5 5 4 6 9 10 9 8 8 9 9 9
4 4 3 3 3 4 4 4 2 2 2 2 3 6 7 7 6 4 4 5 4 7 6 5 5 4 3 3 4 4 3 3 4 5 6 8 9 10 10 10 10 10 10
4 4 4 4 3 4 3 3 2 1 2 2 2 2 3 5 6 4 4 4 5 6 4 4 4 4 3 3 3 3 2 2 4 5 5 6 8 8 10 11 11 11 11
3 3 3 4 3 3 3 2 1 1 2 2 2 2 1 2 4 3 4 3 4 4 4 4 4 3 3 3 3 3 3 3 4 4 3 5 7 8 8 10 11 11 11
3 3 3 4 3 2 1 1 1 1 1 1 2 2 2 1 2 3 3 3 3 3 3 4 4 3 3 3 3 3 4 4 4 3 3 3 5 6 6 7 8 10 12
3 3 2 2 3 2 1 1 2 1 1 1 2 3 2 2 2 2 3 3 3 3 3 3 3 3 3 2 1 2 3 4 4 3 2 2 3 5 6 6 6 7 9
2 3 3 2 3 2 1 1 1 1 1 1 1 2 2 2 2 2 2 3 3 3 3 3 3 3 2 2 2 1 2 3 4 5 4 4 4 3 4 6 7 7 7
2 3 3 2 2 2 2 0 1 1 1 1 1 1 2 2 2 2 2 2 3 3 4 4 4 4 3 3 2 2 2 3 2 3 4 4 3 3 3 4 6 7 7
2 2 3 2 2 1 1 1 2 2 2 1 1 1 2 2 2 2 2 1 2 3 3 3 3 3 3 4 3 2 2 1 2 3 3 4 4 4 4 4 5 6 7
2 2 3 2 1 1 1 2 2 1 2 2 2 2 2 2 2 2 1 1 1 1 2 2 3 3 3 4 3 2 3 2 3 3 4 4 4 5 5 5 4 5 7
3 3 3 3 2 1 1 2 3 3 3 3 2 2 1 1 1 1 1 1 1 1 1 2 3 3 3 3 3 3 2 2 2 2 4 5 5 5 5 5 5 5 6
Wind_Direction
99 131 143 148 152 151 150 150 151 150 150 149 147 145 141 137 133 129 125 122 122 121 118 113 108 103 100 98 95 91 89 90 89 88 84 82 80 75 69 70 72 70 71
98 127 143 149 156 157 154 154 154 154 154 154 153 151 149 147 142 138 136 132 130 127 123 120 115 109 106 103 100 99 97 96 98 98 91 82 80 77 71 69 73 73 72
87 119 142 148 156 159 159 157 157 158 159 160 159 158 157 154 150 146 144 142 138 134 129 124 120 115 108 105 104 104 105 109 114 120 112 103 92 85 81 78 76 74 71
86 114 138 146 159 160 161 162 162 164 165 165 166 166 163 161 157 152 150 147 142 138 133 127 123 117 112 110 111 111 115 125 142 156 116 109 98 92 87 81 77 74 70
84 105 126 142 158 166 163 165 168 170 172 171 170 171 170 168 163 159 157 152 147 142 137 132 128 123 121 120 120 120 129 167 250 284 92 97 97 97 89 81 78 75 72
64 94 125 144 156 167 169 168 171 173 175 177 176 176 176 173 168 165 162 154 150 145 142 139 137 134 133 134 134 138 160 235 284 297 102 104 108 103 94 87 81 78 73
41 79 130 153 159 168 175 177 177 179 180 181 182 183 182 177 172 169 163 157 154 151 148 148 146 146 145 147 151 161 195 259 285 69 96 106 114 112 103 94 85 78 74
21 58 134 160 166 171 175 180 183 184 185 184 185 186 186 182 175 173 168 165 163 161 157 155 155 155 154 156 163 178 218 265 285 120 105 113 124 123 113 102 89 78 68
6 46 111 164 174 177 179 184 190 190 189 188 187 188 188 186 180 175 172 171 170 170 166 164 166 166 167 170 179 196 231 266 293 227 129 126 135 134 127 122 116 89 58
344 26 127 178 182 184 186 187 192 194 194 191 189 188 188 185 182 179 176 178 177 176 174 174 177 177 177 182 192 210 236 266 270 215 141 145 153 150 154 172 190 239 312
322 338 315 209 195 196 196 194 192 195 194 192 191 189 184 185 185 183 183 182 182 180 179 181 183 183 183 192 202 213 232 252 255 201 142 150 160 170 190 212 227 242 256
298 315 340 302 239 226 206 191 195 195 191 192 195 189 190 190 189 187 185 184 186 186 184 187 190 187 186 194 202 208 224 246 251 172 145 158 172 190 209 225 240 249 251
304 315 317 314 287 251 215 190 193 196 190 197 201 193 192 193 183 177 170 179 186 187 187 190 191 193 199 197 190 201 223 237 233 180 162 170 182 200 217 231 243 251 254
296 286 283 291 285 259 237 208 195 191 188 192 201 196 190 185 178 170 169 176 183 189 188 184 193 201 207 205 193 204 223 233 230 183 169 176 188 205 222 235 242 251 257
280 277 264 267 272 262 248 227 213 201 196 196 197 198 192 182 183 178 177 177 185 185 182 187 195 201 204 205 202 208 218 226 221 195 175 184 194 210 226 239 248 255 258
283 285 272 262 261 261 256 238 221 205 197 190 192 196 191 187 185 184 181 178 182 179 182 190 197 198 201 198 206 209 218 224 221 201 182 194 201 211 226 239 249 256 260
290 295 281 259 252 253 256 251 232 203 193 181 187 198 190 186 182 185 183 180 180 179 184 190 197 195 198 202 215 217 212 221 231 216 195 193 202 214 224 238 249 256 260
300 301 299 284 266 252 249 245 224 202 178 167 150 173 185 176 173 176 181 185 181 181 180 188 190 192 198 200 215 228 226 220 231 229 208 198 200 209 224 237 245 253 259
304 300 302 292 273 264 253 232 212 187 197 160 142 133 164 174 172 169 181 185 175 181 185 193 185 189 199 200 216 226 233 234 234 230 214 206 206 206 212 229 240 250 258
307 300 300 300 293 281 269 221 174 150 196 155 149 154 174 169 168 166 175 178 171 175 182 183 187 194 200 200 222 236 238 235 230 220 221 212 212 211 213 227 235 246 254
354 349 336 318 320 315 297 235 194 172 174 159 161 153 158 162 162 158 177 177 176 181 186 181 183 195 204 189 194 248 258 243 230 217 219 228 224 215 222 227 232 243 251
0 352 335 331 319 305 280 248 201 172 168 160 154 144 151 149 144 163 161 177 174 178 185 188 187 188 193 177 176 200 258 264 244 238 228 227 226 214 225 234 236 240 246
356 347 329 320 303 303 299 253 125 137 121 112 119 112 118 115 119 120 130 157 177 181 190 197 192 189 199 200 178 178 200 238 279 246 231 226 229 240 239 236 240 243 248
353 344 335 335 317 290 264 179 173 179 165 183 156 136 114 92 90 95 108 146 170 180 188 196 190 200 197 209 211 213 214 200 231 270 257 236 247 250 247 258 249 245 247
8 349 341 339 327 284 223 173 173 167 160 151 133 131 127 109 92 96 112 122 147 166 183 197 197 203 208 213 212 218 236 251 234 239 263 262 257 247 245 247 247 243 249
19 15 0 5 27 25 118 152 152 152 148 144 142 152 137 137 131 109 120 148 160 143 171 200 200 202 216 217 222 215 216 225 237 252 263 266 264 255 248 243 242 241 247
Height
1503 1502 1504 1505 1507 1509 1511 1513 1515 1517 1519 1520 1522 1524 1525 1527 1528 1529 1530 1531 1532 1533 1534 1535 1536 1537 1537 1538 1539 1539 1540 1541 1541 1541 1542 1542 1542 1542 1542 1542 1542 1541 1541
1502 1502 1504 1505 1507 1509 1511 1513 1515 1517 1519 1521 1523 1524 1526 1527 1529 1530 1531 1533 1534 1535 1535 1536 1537 1538 1539 1539 1540 1541 1542 1542 1543 1543 1543 1543 1543 1543 1543 1543 1543 1543 1543
1502 1502 1503 1505 1507 1509 1511 1513 1515 1517 1519 1521 1523 1525 1526 1528 1530 1531 1532 1533 1535 1536 1537 1537 1538 1539 1540 1541 1541 1542 1543 1544 1544 1544 1544 1544 1544 1544 1544 1544 1544 1544 1544
1502 1502 1503 1505 1507 1509 1511 1513 1515 1517 1519 1521 1523 1525 1527 1528 1530 1531 1533 1534 1535 1536 1537 1538 1539 1540 1541 1542 1543 1543 1544 1545 1545 1546 1546 1546 1546 1546 1545 1545 1545 1545 1544
1502 1502 1503 1505 1507 1509 1511 1513 1515 1517 1519 1521 1523 1525 1527 1528 1530 1532 1533 1534 1536 1537 1538 1539 1540 1541 1542 1543 1543 1544 1545 1546 1546 1547 1547 1547 1547 1547 1546 1546 1546 1545 1545
1502 1502 1503 1505 1506 1508 1510 1512 1514 1516 1518 1520 1523 1524 1526 1528 1530 1531 1533 1534 1536 1537 1538 1539 1540 1541 1542 1543 1544 1545 1546 1547 1547 1548 1548 1547 1547 1547 1547 1547 1546 1546 1545
1502 1502 1503 1504 1506 1507 1509 1511 1513 1516 1518 1520 1522 1524 1526 1528 1529 1531 1533 1534 1536 1537 1538 1539 1541 1541 1542 1543 1544 1545 1546 1547 1548 1548 1548 1548 1548 1548 1547 1547 1547 1546 1546
1501 1501 1502 1504 1505 1506 1508 1510 1513 1515 1517 1519 1521 1523 1525 1527 1529 1530 1532 1534 1535 1537 1538 1539 1540 1541 1542 1543 1544 1545 1546 1547 1548 1548 1548 1548 1548 1548 1547 1547 1547 1546 1546
1500 1500 1501 1503 1504 1505 1507 1509 1511 1513 1516 1518 1520 1522 1524 1526 1528 1529 1531 1533 1534 1536 1537 1538 1540 1541 1542 1543 1544 1545 1546 1547 1547 1548 1548 1548 1548 1547 1547 1547 1547 1546 1546
1498 1499 1500 1501 1502 1504 1505 1507 1509 1512 1514 1516 1518 1520 1522 1524 1526 1528 1530 1531 1533 1535 1536 1537 1539 1540 1541 1542 1543 1544 1545 1546 1547 1547 1547 1547 1547 1547 1546 1546 1546 1546 1545
1497 1498 1498 1500 1501 1502 1503 1505 1507 1509 1512 1514 1516 1518 1520 1522 1524 1526 1528 1530 1532 1533 1535 1536 1537 1539 1540 1541 1542 1543 1544 1545 1546 1546 1546 1546 1546 1546 1546 1545 1545 1545 1544
1495 1496 1497 1497 1499 1500 1501 1503 1505 1507 1509 1511 1513 1515 1518 1520 1522 1524 1526 1528 1530 1531 1533 1535 1536 1537 1538 1539 1541 1542 1543 1544 1545 1545 1545 1545 1545 1545 1544 1544 1544 1543 1543
1493 1493 1494 1495 1496 1497 1499 1500 1502 1504 1506 1508 1511 1513 1515 1517 1519 1521 1523 1525 1527 1529 1531 1532 1534 1535 1536 1537 1539 1540 1541 1542 1543 1543 1543 1543 1543 1543 1543 1542 1542 1542 1541
1490 1490 1491 1492 1493 1494 1496 1497 1499 1501 1502 1505 1507 1510 1512 1514 1516 1519 1520 1522 1524 1526 1528 1530 1531 1533 1534 1536 1537 1538 1539 1540 1541 1541 1541 1541 1541 1541 1541 1540 1540 1539 1539
1487 1488 1488 1489 1490 1492 1493 1494 1496 1498 1499 1502 1504 1506 1509 1511 1513 1515 1517 1519 1521 1523 1525 1527 1529 1531 1532 1533 1534 1536 1537 1538 1538 1539 1538 1538 1538 1538 1538 1538 1537 1537 1536
1484 1485 1485 1486 1487 1488 1490 1491 1493 1494 1496 1498 1500 1503 1505 1507 1509 1512 1514 1516 1518 1520 1522 1524 1526 1528 1529 1531 1532 1533 1534 1535 1535 1536 1535 1535 1535 1535 1535 1535 1535 1534 1533
1481 1482 1482 1483 1484 1485 1486 1487 1489 1491 1492 1494 1496 1498 1501 1503 1506 1508 1510 1513 1515 1517 1519 1521 1523 1525 1526 1528 1529 1530 1530 1531 1532 1532 1532 1532 1532 1532 1532 1532 1531 1531 1530
1478 1478 1479 1479 1480 1481 1482 1484 1485 1487 1488 1490 1492 1494 1497 1500 1502 1504 1507 1509 1511 1514 1515 1518 1520 1521 1522 1524 1525 1526 1527 1527 1528 1529 1528 1528 1528 1528 1528 1528 1528 1527 1527
1474 1475 1475 1476 1476 1477 1478 1480 1481 1482 1484 1486 1488 1490 1493 1496 1498 1500 1503 1505 1508 1510 1511 1514 1516 1518 1519 1520 1521 1522 1523 1523 1524 1524 1524 1524 1524 1524 1524 1524 1524 1523 1523
1471 1471 1472 1472 1473 1474 1475 1476 1477 1479 1480 1482 1484 1486 1489 1492 1494 1496 1499 1501 1504 1506 1508 1509 1511 1513 1515 1516 1517 1517 1518 1519 1519 1520 1520 1520 1520 1520 1520 1520 1519 1519 1518
1468 1468 1468 1469 1469 1470 1471 1472 1473 1474 1476 1478 1480 1483 1485 1488 1490 1493 1495 1497 1499 1501 1503 1505 1507 1509 1511 1512 1513 1513 1513 1514 1514 1515 1516 1516 1516 1515 1515 1515 1514 1514 1513
1466 1466 1466 1466 1466 1467 1468 1469 1470 1471 1473 1475 1477 1479 1481 1484 1486 1489 1491 1493 1495 1497 1499 1501 1503 1505 1506 1508 1508 1508 1508 1509 1509 1510 1510 1510 1510 1511 1510 1510 1509 1509 1508
1463 1463 1463 1463 1463 1464 1465 1466 1467 1469 1470 1472 1474 1476 1478 1480 1483 1485 1487 1489 1491 1493 1495 1497 1498 1500 1501 1503 1504 1505 1505 1503 1504 1504 1504 1505 1505 1505 1505 1505 1504 1503 1503
1461 1461 1461 1460 1460 1461 1462 1462 1464 1465 1466 1469 1471 1473 1475 1477 1479 1482 1484 1486 1487 1489 1491 1493 1495 1496 1497 1497 1499 1500 1501 1500 1500 1498 1498 1499 1500 1500 1499 1499 1498 1497 1497
1459 1459 1458 1458 1458 1458 1459 1459 1461 1463 1465 1467 1469 1470 1472 1474 1477 1478 1480 1482 1484 1485 1487 1489 1490 1492 1492 1493 1494 1495 1495 1496 1496 1495 1492 1492 1493 1493 1493 1493 1492 1491 1491
1457 1457 1456 1456 1456 1456 1456 1457 1459 1460 1462 1463 1465 1468 1469 1471 1473 1475 1477 1478 1480 1481 1482 1484 1486 1487 1488 1489 1490 1490 1490 1490 1491 1490 1489 1487 1486 1486 1487 1487 1486 1485 1485